GW0977 Weather Reports


Display with metric or nautical units.
time (UTC)temp
F
wind
direction
speed
MPH
gust
MPH
rain 1hr
in
rain 24hr
in
rain mn
in
humidity
%
barometer
mb
20260504214558 83 232 6.0 16.0 0.00 0.00 0.00 29 1001.0
20260504213109 83 237 7.0 16.0 0.00 0.00 0.00 31 1001.0
20260504211651 83 282 4.0 16.0 0.00 0.00 0.00 32 1001.0
20260504210101 82 262 5.0 12.0 0.00 0.00 0.00 32 1001.1
20260504204604 84 286 4.0 13.0 0.00 0.00 0.00 32 1001.2
20260504203107 84 260 3.0 14.0 0.00 0.00 0.00 31 1001.2
20260504201613 84 262 6.0 13.0 0.00 0.00 0.00 31 1001.3
20260504200101 83 264 4.0 14.0 0.00 0.00 0.00 35 1001.3
20260504194559 83 246 4.0 12.0 0.00 0.00 0.00 36 1001.3
20260504193110 84 97 2.0 12.0 0.00 0.00 0.00 39 1001.5
20260504191612 82 242 5.0 11.0 0.00 0.00 0.00 39 1001.5
20260504190109 81 180 4.0 12.0 0.00 0.00 0.00 42 1001.7
20260504184557 80 265 5.0 15.0 0.00 0.00 0.00 40 1001.8
20260504183057 80 242 7.0 12.0 0.00 0.00 0.00 41 1001.9
20260504181604 80 142 5.0 13.0 0.00 0.00 0.00 41 1001.9
20260504174602 78 221 6.0 13.0 0.00 0.00 0.00 44 1002.2
20260504173100 78 220 5.0 13.0 0.00 0.00 0.00 45 1002.2
20260504171601 77 229 6.0 14.0 0.00 0.00 0.00 46 1002.4
20260504120103 56 128 1.0 3.0 0.00 0.00 0.00 75 1003.2
20260504081556 56 0 0.0 1.0 0.00 0.00 0.00 75 1005.6
20260504060138 59 150 4.0 9.0 0.00 0.00 0.00 63 1007.6
20260504044600 61 167 0.0 5.0 0.00 0.00 0.00 56 1007.8
20260504043101 63 178 1.0 5.0 0.00 0.00 0.00 48 1008.0
20260504041559 63 0 0.0 3.0 0.00 0.00 0.00 48 1007.9
20260504040132 63 0 0.0 0.0 0.00 0.00 0.00 47 1008.0
20260504034602 63 0 0.0 1.0 0.00 0.00 0.00 48 1008.1
20260504033058 64 0 0.0 0.0 0.00 0.00 0.00 47 1008.3
20260504031625 64 0 0.0 2.0 0.00 0.00 0.00 45 1008.2
20260504030059 64 0 0.0 0.0 0.00 0.00 0.00 45 1008.3
20260504024603 65 0 0.0 2.0 0.00 0.00 0.00 44 1008.3
20260504023056 65 0 0.0 1.0 0.00 0.00 0.00 44 1008.4
20260504021557 66 0 0.0 0.0 0.00 0.00 0.00 43 1008.5
20260504020112 66 0 0.0 0.0 0.00 0.00 0.00 44 1008.7
20260504014558 67 0 0.0 2.0 0.00 0.00 0.00 44 1008.6
20260504013058 69 0 0.0 0.0 0.00 0.00 0.00 42 1008.6
20260504011600 70 0 0.0 1.0 0.00 0.00 0.00 39 1008.6
20260504010058 71 0 0.0 1.0 0.00 0.00 0.00 38 1008.7
20260504004559 72 0 0.0 1.0 0.00 0.00 0.00 38 1008.8
20260504003059 73 0 0.0 1.0 0.00 0.00 0.00 36 1008.7
20260504001601 73 0 0.0 3.0 0.00 0.00 0.00 34 1008.7
20260504000059 74 288 2.0 6.0 0.00 0.00 0.00 33 1008.8
20260503234625 75 0 3.0 8.0 0.00 0.00 0.00 34 1008.9
20260503233057 75 315 4.0 9.0 0.00 0.00 0.00 32 1009.1
20260503231558 76 303 4.0 10.0 0.00 0.00 0.00 32 1009.1
20260503230100 77 322 3.0 10.0 0.00 0.00 0.00 32 1009.1
20260503224559 77 0 1.0 8.0 0.00 0.00 0.00 32 1009.0
20260503223057 76 348 2.0 14.0 0.00 0.00 0.00 32 1009.1
20260503221601 76 5 3.0 12.0 0.00 0.00 0.00 32 1009.3